Regional Weather Roundup
Issued by NWS Upton, NY

Current Version | Previous Version | Text Only | Print | Product List | Glossary On
Versions: 1 2 3 4 5 6 7 8 9 10 11 12 13 14 15 16 17 18 19 20 21 22 23 24 25 26 27 28 29 30 31 32 33 34 35 36 37 38 39 40 41 42 43 44 45 46 47 48 49 50
000 ASUS41 KOKX 070308 RWROKX REGIONAL WEATHER ROUNDUP NATIONAL WEATHER SERVICE NEW YORK NY 1100 PM EDT MON JUL 06 2015 NOTE: "FAIR" INDICATES FEW OR NO CLOUDS BELOW 12,000 FEET WITH NO SIGNIFICANT WEATHER AND/OR OBSTRUCTIONS TO VISIBILITY. NYZ071-072-176-178-NJZ106-104-070400- NEW YORK CITY METRO AREA CITY SKY/WX TMP DP RH WIND PRES REMARKS CENTRAL PARK CLOUDY 75 64 68 S6 30.13F LAGUARDIA APRT CLOUDY 75 64 68 S8 30.10S KENNEDY INTL MOCLDY 74 66 76 SE9 30.10F NEWARK/LIBERTY CLOUDY 73 68 83 SE6 30.09F BRNX BOT. GARD N/A 73 64 73 S8 30.11S TETERBORO CLOUDY 76 65 68 CALM 30.09S $$ NYZ177-179-078>081-070400- LONG ISLAND NEW YORK CITY SKY/WX TMP DP RH WIND PRES REMARKS FARMINGDALE CLOUDY 74 66 76 SE9 30.12R ISLIP CLOUDY 74 65 73 S12 30.10S SHIRLEY CLOUDY 74 66 76 S10 30.12S WESTHAMPTON CLEAR 72 68 87 S6 30.13S MONTAUK POINT N/A 70 67 90 CALM 30.13 $$ NYZ052-065-067-070400- HUDSON VALLEY CITY SKY/WX TMP DP RH WIND PRES REMARKS WHITE PLAINS MOCLDY 72 64 76 SE5 30.11F NEWBURGH MOCLDY 73 68 83 VRB6 30.11S MONTGOMERY CLOUDY 70 67 90 CALM 30.09F POUGHKEEPSIE CLEAR 73 66 78 CALM 30.09R ALBANY PTCLDY 77 66 68 SE9 30.06F $$ NJZ001-105-106-008-010-013-015-019>022-104-070400- NEW JERSEY CITY SKY/WX TMP DP RH WIND PRES REMARKS NEWARK/LIBERTY CLOUDY 73 68 83 SE6 30.09F TETERBORO CLOUDY 76 65 68 CALM 30.09S CALDWELL CLOUDY 74 65 73 SE6 30.10F MORRISTOWN CLOUDY 73 66 78 CALM 30.10S SOMERVILLE CLOUDY 72 70 93 CALM 30.07S FOG SUSSEX CLOUDY 73 66 78 CALM 30.10F ANDOVER N/A 71 67 87 VRB5 30.10 TRENTON CLOUDY 75 71 87 SE8 30.07F MILLVILLE MOCLDY 76 73 91 SE6 30.07F ATLANTIC CITY NOT AVBL WRIGHTSTOWN CLOUDY 75 73 94 SE6 30.05F TOMS RIVER CLOUDY 75 72 88 S7 30.09F BELMAR CLOUDY 73 68 83 SE6 30.09F $$ PAZ047>061-062-071-070400- EASTERN PENNSYLVANIA CITY SKY/WX TMP DP RH WIND PRES REMARKS PHILADELPHIA MOCLDY 77 72 84 SE7 30.07S ALLENTOWN MOCLDY 74 71 91 E5 30.07F SCRANTON MOCLDY 75 67 76 CALM 30.07F $$ CTZ002-004>006-009-010-012-RIZ004-006-007-MAZ004-011-015-070400- SOUTHERN NEW ENGLAND IN CT CITY SKY/WX TMP DP RH WIND PRES REMARKS BRADLEY INTL CLEAR 72 64 76 S8 30.10S HARTFORD CLEAR 71 64 78 S6 30.10S DANBURY CLOUDY 71 62 73 S3 30.12F WTRBRY/OXFORD MOCLDY 68 61 77 S7 30.14S BRIDGEPORT PTCLDY 73 66 78 SW3 30.11S MERIDEN CLEAR 70 64 81 CALM 30.11F NEW HAVEN PTCLDY 68 64 87 CALM 30.12S CHESTER FAIR 66 64 94 S5 30.13F GROTON CLEAR 68 65 90 SE3 30.11F WILLIMANTIC CLEAR 70 64 81 S5 30.12F IN RI CITY SKY/WX TMP DP RH WIND PRES REMARKS PROVIDENCE PTCLDY 68 63 84 S5 30.12F BLOCK ISLAND CLEAR 70 64 83 S7 30.12F WESTERLY CLEAR 67 64 90 CALM 30.12F IN MA CITY SKY/WX TMP DP RH WIND PRES REMARKS BOSTON PTCLDY 71 64 78 S8 30.10S WORCESTER CLEAR 70 64 81 SW9 30.13F WESTFIELD CLEAR 70 65 84 S5 30.10S PROVINCETOWN CLEAR 64 9 11 S7 30.13S NANTUCKET CLEAR 64 60 87 S6 30.13F $$ ANZ330-335-338-340-345-350-353-355-070400- COASTAL MARINE OBSERVATIONS STATION/POSITION TIME SKY/WX TEMP WIND PRES VSBY WAVE AIR SEA DIR/SP/G HT/PER (UTC) (F) (DEG/KT/KT) (MB) (MI) (FT/S) NY HARB ENTRANCE 0250 72 71 150/ 12/ 14 1018.6 3/ 3 4S FIRE IS 0203 69 N/A 3/ 6 20S FIRE ISLAND 0250 72 71 150/ 12/ 14 1018.9 2/ 8 GREAT SOUTH BAY 0200 73 76 180/ 12/ 14 N/A 23SW MTP 0250 72 69 190/ 10/ 10 1019.5 2/ 7 HUDSON CANYON NOT AVBL KINGS POINT 0200 74 70 190/ 6/ 9 1019.0 CENTRAL LI SOUND NOT AVBL EASTERN LI SOUND 0200 67 65 90/ 4/ 4 N/A ROBBINS REEF 0200 73 150/ 10/ 12 1018.3 $$ >>>>>>>>>>>>>>>>>>>>>>>>>>>> KEY <<<<<<<<<<<<<<<<<<<<<<<<<<< > < > SKY/WX - SKY CONDITION/PRESENT WEATHER < > TMP - TEMPERATURE IN FAHRENHEIT < > DP - DEWPOINT IN FAHRENHEIT < > RH - RELATIVE HUMIDITY IN PERCENT < > WIND - DIRECTION AND SPEED IN MPH < > PRES - MEAN SEA LEVEL PRESSURE IN INCHES OF HG < > WCI - WIND CHILL INDEX < > VSB - VISIBILITY IN MILES < > HX - HEAT INDEX < > TC - TEMPERATURE IN CELSIUS < > VRB - VARIABLE WIND DIRECTION < > < >>>>>>>>>>>>>>>>>>>>>>>>>>>> KEY <<<<<<<<<<<<<<<<<<<<<<<<<<<

USA.gov is the U.S. government's official web portal to all federal, state and local government web resources and services.